Regional Weather Roundup
Issued by NWS

Home | Current Version | Previous Version | Graphics & Text | Print | Product List | Glossary On
Versions: 1 2 3 4 5 6 7 8 9 10 11 12 13 14 15 16 17 18 19 20 21 22 23 24 25 26 27 28 29 30 31 32 33 34 35 36 37 38 39 40 41 42 43 44 45 46 47 48 49 50
000
ASUS43 KLMK 240610
RWRKY
KENTUCKY REGIONAL WEATHER ROUNDUP
NATIONAL WEATHER SERVICE LOUISVILLE KY
200 AM EDT SUN SEP 24 2017

NOTE "FAIR" INDICATES FEW OR NO CLOUDS BELOW 12,000 FEET
WITH NO SIGNIFICANT WEATHER AND/OR OBSTRUCTIONS TO VISIBILITY.

KYZ001>023-026-027-061>063-070>075-240700-
WESTERN AND SOUTH CENTRAL KENTUCKY

CITY           SKY/WX    TMP DP  RH WIND       PRES   REMARKS
PADUCAH        CLEAR     69  66  90 CALM      30.00S
HENDERSON      CLEAR     65  64  97 CALM      30.03S
OWENSBORO      CLEAR     71  67  87 NE3       30.04S
HOPKINSVILLE   NOT AVBL
BOWLING GREEN  CLEAR     68  67  96 CALM      30.03S
GLASGOW        CLEAR     67  64  90 E3        30.04S
$$

KYZ024-025-028>034-038-045-046-053-240700-
NORTH CENTRAL KENTUCKY

CITY           SKY/WX    TMP DP  RH WIND       PRES   REMARKS
LOUISVILLE/SDF CLEAR     73  66  78 CALM      30.05S
LOUISVILLE/LOU CLEAR     67  67 100 CALM      30.05S
FORT KNOX      CLEAR     65  64  94 CALM      30.03F
$$

KYZ035>037-039>044-047>052-055>060-089>105-240700-
NORTHEAST KENTUCKY

CITY           SKY/WX    TMP DP  RH WIND       PRES   REMARKS
LEXINGTON      CLEAR     70  62  76 NE5       30.07F
COVINGTON      CLEAR     73  63  70 E3        30.09R
FRANKFORT      CLEAR     66  62  87 CALM      30.06S
$$

KYZ054-064>069-076>088-106>120-240700-
SOUTHEAST KENTUCKY

CITY           SKY/WX    TMP DP  RH WIND       PRES   REMARKS
JACKSON        CLEAR     69  62  78 CALM      30.09S
LONDON         CLEAR     66  62  87 CALM      30.07S
SOMERSET       CLEAR     63  63 100 CALM      30.07S
MIDDLESBORO    PTCLDY    65  65 100 CALM      30.09S
MONTICELLO     CLEAR     64  63  96 VRB5      30.07F
$$





USA.gov is the U.S. government's official web portal to all federal, state and local government web resources and services.